Regional Weather Roundup
Issued by NWS

Home | Current Version | Previous Version | Text Only | Print | Product List | Glossary On
Versions: 1 2 3 4 5 6 7 8 9 10 11 12 13 14 15 16 17 18 19 20 21 22 23 24 25 26 27 28 29 30 31 32 33 34 35 36 37 38 39 40 41 42 43 44 45 46 47 48 49 50
000
ASUS45 KBOU 281307
RWRCO

WEATHER ROUNDUP FOR COLORADO
NATIONAL WEATHER SERVICE DENVER/BOULDER CO
600 AM MST FRI NOV 28 2014

NOTE: "FAIR" INDICATES FEW OR NO CLOUDS BELOW 12000 FEET WITH NO
SIGNIFICANT WEATHER AND/OR OBSTRUCTIONS TO VISIBILITY.

COZ001>005-013-030-031-281400-
...NORTHWEST COLORADO...

CITY           SKY/WX    TMP DP  RH WIND       PRES   REMARKS
CRAIG          PTCLDY    24  20  84 SE3       30.16F
HAYDEN         PTCLDY    23  18  80 SE6       30.16S WCI  16
MEEKER         MOCLDY    31  20  63 NE3       30.17F
MOUNT WERNER   NOT AVBL
STEAMBOAT SPGS CLOUDY    17  16  94 CALM      30.18S VSB 1/4
WALDEN         CLEAR     34  14  44 E8        30.13S WCI  27
$$

COZ006>008-011-281400-
...WEST CENTRAL VALLEYS...

CITY           SKY/WX    TMP DP  RH WIND       PRES   REMARKS
GRAND JUNCTION PTCLDY    22  19  89 E6        30.22F WCI  14
MONTROSE       PTCLDY    23  18  81 SE6       30.25S WCI  16
EAGLE          PTCLDY    25  21  86 CALM      30.25S
RIFLE          PTCLDY    27  23  85 CALM      30.24F
DELTA          PTCLDY    24  21  85 CALM      30.24F
NUCLA          PTCLDY    30  19  64 SE6       30.28F WCI  24
$$

COZ017>023-064>068-281400-
...SOUTHWEST COLORADO...

CITY           SKY/WX    TMP DP  RH WIND       PRES   REMARKS
DURANGO        PTCLDY    21  17  84 NE5       30.29F WCI  15
CORTEZ         CLEAR     19  14  81 NE6       30.27F WCI  11
PAGOSA SPRINGS PTCLDY    23  20  91 CALM      30.32S
TELLURIDE      PTCLDY    33  10  37 SE7       30.35S WCI  27
WOLF CREEK PAS CLEAR     28   5  37 MISG      30.40S
$$

COZ009-010-012-014-032>034-037-058>063-281400-
...CENTRAL COLORADO...

CITY           SKY/WX    TMP DP  RH WIND       PRES   REMARKS
ASPEN          PTCLDY    25  16  68 S7        30.22F WCI  17
BUENA VISTA    PTCLDY    46   2  17 N14G21    30.17F
COPPER MTN     PTCLDY    34   0  23 W29G40    30.31F HAZE    WCI  20
BERTHOUD PASS  NOT AVBL
COTTONWOOD PAS PTCLDY    46 -15   7 W43G54    30.18F
GUNNISON       PTCLDY    10   5  79 CALM      30.37S
KREMMLING      PTCLDY    19  18  93 CALM      30.21F
LEADVILLE      PTCLDY    31   5  33 NE9       30.25F WCI  23
MONARCH PASS   PTCLDY    28   3  34 W38       30.46S WCI  11
SALIDA         PTCLDY    46   8  21 SW9       30.23S
SUNLIGHT       PTCLDY    32  18  55 CALM      30.32F
WILKERSON PASS PTCLDY    34  -2  21 W16G36    30.26F WCI  23
$$

COZ069>075-281400-
...SAN LUIS VALLEY/SANGRE DE CRISTO MOUNTAINS...

CITY           SKY/WX    TMP DP  RH WIND       PRES   REMARKS
ALAMOSA        MOCLDY     9   4  80 W5        30.27S WCI   1
LA VETA PASS   MOCLDY    32  10  40 S10G22    30.25F WCI  24
SAGUACHE       PTCLDY    23  14  68 W6        30.28S WCI  16
$$

COZ035-036-038>040-281400-
...NORTHERN COLORADO FRONT RANGE...

CITY           SKY/WX    TMP DP  RH WIND       PRES   REMARKS
DENVER INTL AP CLOUDY    47  13  25 S7        29.96F
DMNS CITY PARK   N/A     44  14  29 S6G13     29.96F
AURORA         MOCLDY    45  14  28 S13       29.99F
FRONT RANGE AP CLOUDY    55  12  18 SW10G17   29.98F
ERIE MUNI ARPT CLOUDY    59   6  12 W12G22    29.94F
BOULDER MUN AP CLOUDY    50  16  25 CALM      29.94F
CENTENNIAL     CLOUDY    39  18  42 W12G20    29.99F
BROOMFIELD     PTCLDY    55   9  15 CALM      29.97F
FORT COLLINS   MOCLDY    59  18  20 SW24G33   29.93F
LONGMONT       MOCLDY    56  12  17 S6G17     29.96F
$$

COZ041-046-047-076>085-087-088-281400-
...PIKES PEAK/PALMER DIVIDE AND SOUTHERN FOOTHILLS...

CITY           SKY/WX    TMP DP  RH WIND       PRES   REMARKS
COLO. SPRINGS  CLOUDY    47  12  24 E7        30.06F
A. F. ACADEMY  CLOUDY    37  13  37 VRB2      30.06F
ELLICOTT       NOT AVBL
FALCON         NOT AVBL
FORT CARSON    CLOUDY    39  16  39 NW5       30.03F
LIMON          CLOUDY    27  18  69 N8        30.00F WCI  19
MONUMENT HILL  CLOUDY    45   9  23 SW13      30.05F
TRINIDAD       PTCLDY    36  20  52 W9        30.09F
$$

COZ042>045-048>051-090-091-281400-
...NORTHEAST COLORADO...

CITY           SKY/WX    TMP DP  RH WIND       PRES   REMARKS
GREELEY ARPT   CLOUDY    23  16  74 N7        29.95F WCI  15
AKRON          MOCLDY    38  22  52 SW7       29.93F
BURLINGTON     PTCLDY    35  19  52 W9        29.94F WCI  28
WRAY           PTCLDY    37  25  64 W12       29.90F
STERLING       MOCLDY    32  28  86 S5        29.92F WCI  27
HOLYOKE        PTCLDY    34  28  80 W13       29.89F WCI  25
FORT MORGAN    MOCLDY    35  23  62 W9        29.94F WCI  27
$$

COZ086-089-092>099-281400-
...SOUTHEAST COLORADO...

CITY           SKY/WX    TMP DP  RH WIND       PRES   REMARKS
PUEBLO         MOCLDY    33  21  61 W8        30.02F WCI  26
LA JUNTA       MOCLDY    43  22  43 W17       29.99F
LAMAR          MOCLDY    29  22  75 SW8       29.97F WCI  21
SPRINGFIELD      N/A     42  17  36 W6        29.99F
$$



USA.gov is the U.S. government's official web portal to all federal, state and local government web resources and services.